Time,TemperatureF,DewpointF,PressureIn,WindDirection,WindDirectionDegrees,WindSpeedMPH,WindSpeedGustMPH,Humidity,HourlyPrecipIn,Conditions,Clouds,dailyrainin,SoftwareType,DateUTC
2013-11-08 00:01:00,37.0,36.0,29.81,South,180,2.0,2.0,96,0.00,,,0.20,meteohub,2013-11-08 05:01:00,
2013-11-08 00:02:00,37.0,36.0,29.81,South,180,1.0,2.0,96,0.00,,,0.20,meteohub,2013-11-08 05:02:00,
2013-11-08 00:07:00,37.0,36.3,29.81,South,180,0.0,2.0,97,0.00,,,0.00,meteohub,2013-11-08 05:07:00,
2013-11-08 00:12:00,36.9,36.7,29.81,South,180,1.0,2.0,99,0.00,,,0.00,meteohub,2013-11-08 05:12:00,
2013-11-08 00:17:00,36.5,36.3,29.81,South,180,0.0,2.0,99,0.00,,,0.00,meteohub,2013-11-08 05:17:00,
2013-11-08 00:22:00,36.3,36.1,29.81,SW,225,2.0,2.0,99,0.00,,,0.00,meteohub,2013-11-08 05:22:00,
2013-11-08 00:27:00,36.5,36.3,29.81,South,180,2.0,2.0,99,0.00,,,0.00,meteohub,2013-11-08 05:27:00,
2013-11-08 00:32:00,36.3,36.1,29.81,South,180,2.0,2.0,99,0.00,,,0.00,meteohub,2013-11-08 05:32:00,
2013-11-08 00:37:00,36.3,36.1,29.81,South,180,2.0,2.0,99,0.00,,,0.00,meteohub,2013-11-08 05:37:00,
2013-11-08 00:42:00,36.1,36.0,29.81,South,180,2.0,2.0,99,0.00,,,0.00,meteohub,2013-11-08 05:42:00,
2013-11-08 00:47:00,36.0,35.8,29.81,South,180,2.0,2.0,99,0.00,,,0.00,meteohub,2013-11-08 05:47:00,
2013-11-08 00:52:00,35.8,35.6,29.81,South,180,2.0,2.0,99,0.00,,,0.00,meteohub,2013-11-08 05:52:00,
2013-11-08 00:57:00,35.6,35.4,29.81,SSW,203,2.0,2.0,99,0.00,,,0.00,meteohub,2013-11-08 05:57:00,
2013-11-08 01:02:00,35.4,35.2,29.82,SW,225,0.0,2.0,99,0.00,,,0.00,meteohub,2013-11-08 06:02:00,
2013-11-08 01:07:00,35.2,35.1,29.81,South,180,0.0,2.0,99,0.00,,,0.00,meteohub,2013-11-08 06:07:00,
2013-11-08 01:12:00,34.9,34.7,29.82,South,180,0.0,2.0,99,0.00,,,0.00,meteohub,2013-11-08 06:12:00,
2013-11-08 01:17:00,34.9,34.7,29.82,South,180,1.0,1.0,99,0.00,,,0.00,meteohub,2013-11-08 06:17:00,
2013-11-08 01:22:00,34.7,34.5,29.82,SW,225,2.0,2.0,99,0.00,,,0.00,meteohub,2013-11-08 06:22:00,
2013-11-08 01:27:00,34.9,34.7,29.82,South,180,1.0,2.0,99,0.00,,,0.00,meteohub,2013-11-08 06:27:00,
2013-11-08 01:32:00,34.7,34.5,29.82,SE,135,2.0,2.0,99,0.00,,,0.00,meteohub,2013-11-08 06:32:00,
2013-11-08 01:37:00,34.7,34.5,29.82,South,180,0.0,2.0,99,0.00,,,0.00,meteohub,2013-11-08 06:37:00,
2013-11-08 01:42:00,34.7,34.5,29.81,West,270,0.0,2.0,99,0.00,,,0.00,meteohub,2013-11-08 06:42:00,
2013-11-08 01:48:00,34.5,34.3,29.82,West,270,0.0,2.0,99,0.00,,,0.00,meteohub,2013-11-08 06:48:00,
2013-11-08 01:52:00,33.8,33.6,29.82,West,270,0.0,2.0,99,0.00,,,0.00,meteohub,2013-11-08 06:52:00,
2013-11-08 01:58:00,33.6,33.4,29.82,South,180,0.0,1.0,99,0.00,,,0.00,meteohub,2013-11-08 06:58:00,
2013-11-08 02:03:00,33.6,33.4,29.82,SW,225,1.0,0.0,99,0.00,,,0.00,meteohub,2013-11-08 07:03:00,
2013-11-08 02:08:00,33.6,33.4,29.83,SW,225,0.0,1.0,99,0.00,,,0.00,meteohub,2013-11-08 07:08:00,
2013-11-08 02:13:00,33.6,33.4,29.83,NW,315,0.0,1.0,99,0.00,,,0.00,meteohub,2013-11-08 07:13:00,
2013-11-08 02:18:00,33.4,33.3,29.83,SW,225,0.0,1.0,99,0.00,,,0.00,meteohub,2013-11-08 07:18:00,
2013-11-08 02:23:00,33.4,33.3,29.84,SW,225,0.0,0.0,99,0.00,,,0.00,meteohub,2013-11-08 07:23:00,
2013-11-08 02:28:00,33.4,33.3,29.84,East,90,1.0,0.0,99,0.00,,,0.00,meteohub,2013-11-08 07:28:00,
2013-11-08 02:33:00,33.4,33.3,29.83,South,180,0.0,2.0,99,0.00,,,0.00,meteohub,2013-11-08 07:33:00,
2013-11-08 02:38:00,33.6,33.4,29.83,SW,225,1.0,2.0,99,0.00,,,0.00,meteohub,2013-11-08 07:38:00,
2013-11-08 02:43:00,33.6,33.4,29.83,SE,135,2.0,2.0,99,0.00,,,0.00,meteohub,2013-11-08 07:43:00,
2013-11-08 02:48:00,33.8,33.6,29.83,SE,135,2.0,2.0,99,0.00,,,0.00,meteohub,2013-11-08 07:48:00,
2013-11-08 02:53:00,34.2,34.0,29.83,SE,135,0.0,2.0,99,0.00,,,0.00,meteohub,2013-11-08 07:53:00,
2013-11-08 02:58:00,34.0,33.8,29.83,NW,315,1.0,2.0,99,0.00,,,0.00,meteohub,2013-11-08 07:58:00,
2013-11-08 03:03:00,34.0,33.8,29.83,NW,315,1.0,2.0,99,0.00,,,0.00,meteohub,2013-11-08 08:03:00,
2013-11-08 03:08:00,33.8,33.6,29.83,West,270,0.0,3.0,99,0.00,,,0.00,meteohub,2013-11-08 08:08:00,
2013-11-08 03:13:00,33.6,33.4,29.83,South,180,0.0,3.0,99,0.00,,,0.00,meteohub,2013-11-08 08:13:00,
2013-11-08 03:18:00,34.0,33.8,29.83,East,90,2.0,2.0,99,0.00,,,0.00,meteohub,2013-11-08 08:18:00,
2013-11-08 03:23:00,34.7,34.5,29.84,NW,315,2.0,4.0,99,0.00,,,0.00,meteohub,2013-11-08 08:23:00,
2013-11-08 03:28:00,35.1,34.9,29.84,SW,225,0.0,4.0,99,0.00,,,0.00,meteohub,2013-11-08 08:28:00,
2013-11-08 03:33:00,35.2,35.1,29.83,NE,45,2.0,4.0,99,0.00,,,0.00,meteohub,2013-11-08 08:33:00,
2013-11-08 03:38:00,35.6,35.4,29.84,SW,225,3.0,4.0,99,0.00,,,0.00,meteohub,2013-11-08 08:38:00,
2013-11-08 03:43:00,36.0,35.8,29.83,South,180,2.0,3.0,99,0.00,,,0.00,meteohub,2013-11-08 08:43:00,
2013-11-08 03:48:00,36.0,35.8,29.83,South,180,1.0,3.0,99,0.00,,,0.00,meteohub,2013-11-08 08:48:00,
2013-11-08 03:53:00,36.3,36.1,29.83,WSW,248,4.0,4.0,99,0.00,,,0.00,meteohub,2013-11-08 08:53:00,
2013-11-08 03:58:00,36.5,36.3,29.84,South,180,1.0,4.0,99,0.00,,,0.00,meteohub,2013-11-08 08:58:00,
2013-11-08 04:03:00,36.7,36.5,29.83,NE,45,1.0,4.0,99,0.00,,,0.00,meteohub,2013-11-08 09:03:00,
2013-11-08 04:08:00,36.7,36.5,29.83,SW,225,1.0,4.0,99,0.00,,,0.00,meteohub,2013-11-08 09:08:00,
2013-11-08 04:13:00,36.9,36.7,29.84,South,180,1.0,2.0,99,0.00,,,0.00,meteohub,2013-11-08 09:13:00,
2013-11-08 04:18:00,37.2,37.0,29.84,South,180,2.0,2.0,99,0.00,,,0.00,meteohub,2013-11-08 09:18:00,
2013-11-08 04:23:00,37.2,37.0,29.84,SE,135,1.0,5.0,99,0.00,,,0.00,meteohub,2013-11-08 09:23:00,
2013-11-08 04:28:00,37.4,37.2,29.84,SW,225,2.0,5.0,99,0.00,,,0.00,meteohub,2013-11-08 09:28:00,
2013-11-08 04:33:00,37.4,37.2,29.84,SE,135,0.0,5.0,99,0.00,,,0.00,meteohub,2013-11-08 09:33:00,
2013-11-08 04:38:00,37.6,37.4,29.85,North,0,3.0,5.0,99,0.00,,,0.00,meteohub,2013-11-08 09:38:00,
2013-11-08 04:43:00,37.6,37.4,29.85,South,180,2.0,5.0,99,0.00,,,0.00,meteohub,2013-11-08 09:43:00,
2013-11-08 04:48:00,37.6,37.4,29.86,NE,45,2.0,5.0,99,0.00,,,0.00,meteohub,2013-11-08 09:48:00,
2013-11-08 04:53:00,37.8,37.6,29.86,ESE,113,4.0,4.0,99,0.00,,,0.00,meteohub,2013-11-08 09:53:00,
2013-11-08 04:58:00,37.9,37.8,29.86,SW,225,5.0,5.0,99,0.00,,,0.00,meteohub,2013-11-08 09:58:00,
2013-11-08 05:03:00,37.9,37.8,29.86,South,180,2.0,5.0,99,0.00,,,0.00,meteohub,2013-11-08 10:03:00,
2013-11-08 05:08:00,38.1,37.9,29.86,SW,225,1.0,5.0,99,0.00,,,0.00,meteohub,2013-11-08 10:08:00,
2013-11-08 05:13:00,38.1,37.6,29.86,SW,225,1.0,5.0,98,0.00,,,0.00,meteohub,2013-11-08 10:13:00,
2013-11-08 05:18:00,38.1,37.4,29.86,NW,315,5.0,5.0,97,0.00,,,0.00,meteohub,2013-11-08 10:18:00,
2013-11-08 05:23:00,38.3,37.6,29.86,NNW,338,1.0,6.0,97,0.00,,,0.00,meteohub,2013-11-08 10:23:00,
2013-11-08 05:28:00,38.1,37.4,29.85,SE,135,2.0,6.0,97,0.00,,,0.00,meteohub,2013-11-08 10:28:00,
2013-11-08 05:33:00,38.1,37.0,29.86,East,90,2.0,6.0,96,0.00,,,0.00,meteohub,2013-11-08 10:33:00,
2013-11-08 05:38:00,38.1,36.9,29.86,NW,315,2.0,4.0,95,0.00,,,0.00,meteohub,2013-11-08 10:38:00,
2013-11-08 05:43:00,38.3,37.0,29.86,NW,315,2.0,4.0,95,0.00,,,0.00,meteohub,2013-11-08 10:43:00,
2013-11-08 05:48:00,38.3,36.7,29.86,NE,45,4.0,4.0,94,0.00,,,0.00,meteohub,2013-11-08 10:48:00,
2013-11-08 05:53:00,38.3,37.0,29.86,West,270,3.0,4.0,95,0.00,,,0.00,meteohub,2013-11-08 10:53:00,
2013-11-08 05:58:00,38.1,36.9,29.85,NNE,23,10.0,10.0,95,0.00,,,0.00,meteohub,2013-11-08 10:58:00,
2013-11-08 06:03:00,38.1,36.9,29.86,NNE,23,2.0,10.0,95,0.00,,,0.00,meteohub,2013-11-08 11:03:00,
2013-11-08 06:08:00,37.9,36.7,29.86,SW,225,2.0,10.0,95,0.00,,,0.00,meteohub,2013-11-08 11:08:00,
2013-11-08 06:13:00,37.9,36.7,29.86,North,0,2.0,10.0,95,0.00,,,0.00,meteohub,2013-11-08 11:13:00,
2013-11-08 06:18:00,37.8,36.5,29.86,North,0,2.0,4.0,95,0.00,,,0.00,meteohub,2013-11-08 11:18:00,
2013-11-08 06:23:00,37.8,36.7,29.87,East,90,0.0,4.0,96,0.00,,,0.00,meteohub,2013-11-08 11:23:00,
2013-11-08 06:28:00,37.8,36.7,29.87,North,0,2.0,2.0,96,0.00,,,0.00,meteohub,2013-11-08 11:28:00,
2013-11-08 06:33:00,37.8,36.7,29.87,NE,45,2.0,4.0,96,0.00,,,0.00,meteohub,2013-11-08 11:33:00,
2013-11-08 06:38:00,37.9,36.9,29.88,SW,225,1.0,4.0,96,0.00,,,0.00,meteohub,2013-11-08 11:38:00,
2013-11-08 06:43:00,37.9,37.2,29.87,West,270,0.0,4.0,97,0.00,,,0.00,meteohub,2013-11-08 11:43:00,
2013-11-08 06:48:00,37.9,36.9,29.88,North,0,3.0,4.0,96,0.00,,,0.00,meteohub,2013-11-08 11:48:00,
2013-11-08 06:53:00,38.1,36.9,29.88,North,0,4.0,4.0,95,0.00,,,0.00,meteohub,2013-11-08 11:53:00,
2013-11-08 06:58:00,38.1,36.9,29.88,North,0,1.0,4.0,95,0.00,,,0.00,meteohub,2013-11-08 11:58:00,
2013-11-08 07:03:00,38.1,37.0,29.88,North,0,1.0,4.0,96,0.00,,,0.00,meteohub,2013-11-08 12:03:00,
2013-11-08 07:08:00,38.3,37.0,29.89,NE,45,2.0,4.0,95,0.00,,,0.00,meteohub,2013-11-08 12:08:00,
2013-11-08 07:13:00,38.3,36.7,29.89,North,0,3.0,3.0,94,0.00,,,0.00,meteohub,2013-11-08 12:13:00,
2013-11-08 07:18:00,38.5,36.9,29.89,NE,45,2.0,4.0,94,0.00,,,0.00,meteohub,2013-11-08 12:18:00,
2013-11-08 07:23:00,38.5,36.9,29.90,NW,315,2.0,4.0,94,0.00,,,0.00,meteohub,2013-11-08 12:23:00,
2013-11-08 07:29:00,38.5,36.7,29.90,West,270,2.0,4.0,93,0.00,,,0.00,meteohub,2013-11-08 12:29:00,
2013-11-08 07:34:00,38.3,36.7,29.90,NW,315,2.0,4.0,94,0.00,,,0.00,meteohub,2013-11-08 12:34:00,
2013-11-08 07:39:00,38.1,36.3,29.90,SW,225,2.0,4.0,93,0.00,,,0.00,meteohub,2013-11-08 12:39:00,
2013-11-08 07:44:00,38.1,36.5,29.91,NW,315,2.0,4.0,94,0.00,,,0.00,meteohub,2013-11-08 12:44:00,
2013-11-08 07:49:00,38.1,36.5,29.91,West,270,1.0,4.0,94,0.00,,,0.00,meteohub,2013-11-08 12:49:00,
2013-11-08 07:54:00,38.7,36.9,29.91,North,0,4.0,4.0,93,0.00,,,0.00,meteohub,2013-11-08 12:54:00,
2013-11-08 07:59:00,39.6,37.8,29.91,NW,315,2.0,3.0,93,0.00,,,0.00,meteohub,2013-11-08 12:59:00,
2013-11-08 08:04:00,40.8,37.8,29.90,North,0,2.0,5.0,89,0.00,,,0.00,meteohub,2013-11-08 13:04:00,
2013-11-08 08:09:00,41.5,38.3,29.91,West,270,0.0,5.0,88,0.00,,,0.00,meteohub,2013-11-08 13:09:00,
2013-11-08 08:14:00,41.2,37.9,29.91,SW,225,2.0,3.0,88,0.00,,,0.00,meteohub,2013-11-08 13:14:00,
2013-11-08 08:19:00,41.2,37.6,29.91,North,0,2.0,3.0,87,0.00,,,0.00,meteohub,2013-11-08 13:19:00,
2013-11-08 08:24:00,41.4,37.6,29.91,North,0,3.0,5.0,86,0.00,,,0.00,meteohub,2013-11-08 13:24:00,
2013-11-08 08:29:00,41.7,36.9,29.91,NW,315,8.0,8.0,83,0.00,,,0.00,meteohub,2013-11-08 13:29:00,
2013-11-08 08:34:00,42.3,37.4,29.91,NW,315,2.0,11.0,83,0.00,,,0.00,meteohub,2013-11-08 13:34:00,
2013-11-08 08:39:00,42.6,37.2,29.91,South,180,5.0,11.0,81,0.00,,,0.00,meteohub,2013-11-08 13:39:00,
2013-11-08 08:44:00,42.6,36.9,29.91,NW,315,4.0,11.0,80,0.00,,,0.00,meteohub,2013-11-08 13:44:00,
2013-11-08 08:49:00,43.2,37.0,29.91,NW,315,4.0,8.0,79,0.00,,,0.00,meteohub,2013-11-08 13:49:00,
2013-11-08 08:54:00,43.0,37.2,29.91,North,0,4.0,8.0,80,0.00,,,0.00,meteohub,2013-11-08 13:54:00,
2013-11-08 08:59:00,42.6,36.3,29.90,NW,315,7.0,8.0,78,0.00,,,0.00,meteohub,2013-11-08 13:59:00,
2013-11-08 09:04:00,43.0,36.7,29.90,North,0,4.0,8.0,78,0.00,,,0.00,meteohub,2013-11-08 14:04:00,
2013-11-08 09:09:00,43.2,37.4,29.91,NE,45,4.0,8.0,80,0.00,,,0.00,meteohub,2013-11-08 14:09:00,
2013-11-08 09:14:00,43.9,37.8,29.90,SW,225,5.0,7.0,79,0.00,,,0.00,meteohub,2013-11-08 14:14:00,
2013-11-08 09:19:00,44.6,37.6,29.91,NE,45,4.0,9.0,76,0.00,,,0.00,meteohub,2013-11-08 14:19:00,
2013-11-08 09:24:00,44.8,36.3,29.91,North,0,5.0,9.0,72,0.00,,,0.00,meteohub,2013-11-08 14:24:00,
2013-11-08 09:29:00,45.9,37.4,29.90,ENE,68,4.0,11.0,72,0.00,,,0.00,meteohub,2013-11-08 14:29:00,
2013-11-08 09:34:00,46.2,37.4,29.90,NW,315,7.0,11.0,71,0.00,,,0.00,meteohub,2013-11-08 14:34:00,
2013-11-08 09:39:00,46.0,36.1,29.90,NW,315,4.0,11.0,68,0.00,,,0.00,meteohub,2013-11-08 14:39:00,
2013-11-08 09:44:00,46.0,34.9,29.90,NNW,338,6.0,8.0,65,0.00,,,0.00,meteohub,2013-11-08 14:44:00,
2013-11-08 09:49:00,46.8,36.7,29.91,South,180,6.0,8.0,68,0.00,,,0.00,meteohub,2013-11-08 14:49:00,
2013-11-08 09:54:00,47.7,36.1,29.91,WSW,248,4.0,7.0,64,0.00,,,0.00,meteohub,2013-11-08 14:54:00,
2013-11-08 09:59:00,47.1,36.0,29.91,North,0,8.0,8.0,65,0.00,,,0.00,meteohub,2013-11-08 14:59:00,
2013-11-08 10:04:00,47.3,36.1,29.90,NW,315,4.0,11.0,65,0.00,,,0.00,meteohub,2013-11-08 15:04:00,
2013-11-08 10:09:00,47.3,36.9,29.91,SW,225,3.0,11.0,67,0.00,,,0.00,meteohub,2013-11-08 15:09:00,
2013-11-08 10:14:00,46.6,35.8,29.90,SW,225,4.0,11.0,66,0.00,,,0.00,meteohub,2013-11-08 15:14:00,
2013-11-08 10:19:00,46.4,35.6,29.90,NW,315,8.0,9.0,66,0.00,,,0.00,meteohub,2013-11-08 15:19:00,
2013-11-08 10:24:00,46.0,35.2,29.90,NE,45,4.0,9.0,66,0.00,,,0.00,meteohub,2013-11-08 15:24:00,
2013-11-08 10:29:00,45.9,36.0,29.90,North,0,4.0,9.0,68,0.00,,,0.00,meteohub,2013-11-08 15:29:00,
2013-11-08 10:34:00,46.4,36.0,29.90,SW,225,5.0,9.0,67,0.00,,,0.00,meteohub,2013-11-08 15:34:00,
2013-11-08 10:40:00,46.8,36.0,29.90,WNW,293,13.0,13.0,66,0.00,,,0.00,meteohub,2013-11-08 15:40:00,
2013-11-08 10:44:00,46.9,35.4,29.91,NE,45,8.0,13.0,64,0.00,,,0.00,meteohub,2013-11-08 15:44:00,
2013-11-08 10:50:00,47.7,36.5,29.90,NE,45,4.0,13.0,65,0.00,,,0.00,meteohub,2013-11-08 15:50:00,
2013-11-08 10:55:00,47.5,35.6,29.90,East,90,6.0,13.0,63,0.00,,,0.00,meteohub,2013-11-08 15:55:00,
2013-11-08 11:00:00,47.5,36.3,29.90,NW,315,4.0,13.0,65,0.00,,,0.00,meteohub,2013-11-08 16:00:00,
2013-11-08 11:05:00,48.0,36.0,29.90,North,0,2.0,10.0,63,0.00,,,0.00,meteohub,2013-11-08 16:05:00,
2013-11-08 11:10:00,49.3,36.3,29.90,West,270,7.0,10.0,61,0.00,,,0.00,meteohub,2013-11-08 16:10:00,
2013-11-08 11:15:00,48.6,35.8,29.90,NW,315,4.0,10.0,61,0.00,,,0.00,meteohub,2013-11-08 16:15:00,
2013-11-08 11:20:00,48.7,36.0,29.89,NW,315,6.0,10.0,61,0.00,,,0.00,meteohub,2013-11-08 16:20:00,
2013-11-08 11:25:00,49.3,37.2,29.90,SW,225,2.0,10.0,63,0.00,,,0.00,meteohub,2013-11-08 16:25:00,
2013-11-08 11:30:00,48.9,36.1,29.90,NE,45,3.0,8.0,61,0.00,,,0.00,meteohub,2013-11-08 16:30:00,
2013-11-08 11:35:00,48.6,34.9,29.89,NE,45,5.0,10.0,59,0.00,,,0.00,meteohub,2013-11-08 16:35:00,
2013-11-08 11:40:00,48.6,35.2,29.89,SE,135,8.0,10.0,60,0.00,,,0.00,meteohub,2013-11-08 16:40:00,
2013-11-08 11:45:00,47.8,34.7,29.89,SW,225,3.0,10.0,60,0.00,,,0.00,meteohub,2013-11-08 16:45:00,
2013-11-08 11:50:00,48.0,35.2,29.88,North,0,4.0,8.0,61,0.00,,,0.00,meteohub,2013-11-08 16:50:00,
2013-11-08 11:55:00,48.6,36.1,29.88,SW,225,2.0,8.0,62,0.00,,,0.00,meteohub,2013-11-08 16:55:00,
2013-11-08 12:00:00,48.9,35.2,29.88,NE,45,4.0,8.0,59,0.00,,,0.00,meteohub,2013-11-08 17:00:00,
2013-11-08 12:05:00,49.1,35.4,29.88,North,0,4.0,9.0,59,0.00,,,0.00,meteohub,2013-11-08 17:05:00,
2013-11-08 12:10:00,49.1,35.8,29.88,NW,315,7.0,9.0,60,0.00,,,0.00,meteohub,2013-11-08 17:10:00,
2013-11-08 12:15:00,48.6,34.9,29.88,North,0,4.0,9.0,59,0.00,,,0.00,meteohub,2013-11-08 17:15:00,
2013-11-08 12:20:00,47.3,33.6,29.88,SW,225,5.0,9.0,59,0.00,,,0.00,meteohub,2013-11-08 17:20:00,
2013-11-08 12:25:00,46.4,33.3,29.88,North,0,7.0,9.0,60,0.00,,,0.00,meteohub,2013-11-08 17:25:00,
2013-11-08 12:30:00,46.2,32.7,29.88,NE,45,6.0,9.0,59,0.00,,,0.00,meteohub,2013-11-08 17:30:00,
2013-11-08 12:35:00,47.3,33.6,29.88,North,0,4.0,9.0,59,0.00,,,0.00,meteohub,2013-11-08 17:35:00,
2013-11-08 12:40:00,48.2,34.2,29.88,North,0,2.0,8.0,58,0.00,,,0.00,meteohub,2013-11-08 17:40:00,
2013-11-08 12:45:00,48.7,34.2,29.88,NE,45,4.0,12.0,57,0.00,,,0.00,meteohub,2013-11-08 17:45:00,
2013-11-08 12:50:00,48.7,34.7,29.89,NE,45,3.0,12.0,58,0.00,,,0.00,meteohub,2013-11-08 17:50:00,
2013-11-08 12:55:00,48.4,34.3,29.88,South,180,8.0,12.0,58,0.00,,,0.00,meteohub,2013-11-08 17:55:00,
2013-11-08 13:00:00,47.3,33.6,29.89,NW,315,3.0,11.0,59,0.00,,,0.00,meteohub,2013-11-08 18:00:00,
2013-11-08 13:05:00,46.8,31.8,29.89,NNW,338,4.0,11.0,56,0.00,,,0.00,meteohub,2013-11-08 18:05:00,
2013-11-08 13:10:00,46.4,32.9,29.89,South,180,4.0,11.0,59,0.00,,,0.00,meteohub,2013-11-08 18:10:00,
2013-11-08 13:15:00,46.2,33.4,29.89,East,90,4.0,8.0,61,0.00,,,0.00,meteohub,2013-11-08 18:15:00,
2013-11-08 13:20:00,46.2,33.1,29.89,West,270,2.0,7.0,60,0.00,,,0.00,meteohub,2013-11-08 18:20:00,
2013-11-08 13:25:00,46.4,33.3,29.89,North,0,3.0,7.0,60,0.00,,,0.00,meteohub,2013-11-08 18:25:00,
2013-11-08 13:30:00,46.8,33.3,29.89,West,270,4.0,5.0,59,0.00,,,0.00,meteohub,2013-11-08 18:30:00,
2013-11-08 13:35:00,47.1,33.4,29.89,ENE,68,6.0,6.0,59,0.00,,,0.00,meteohub,2013-11-08 18:35:00,
2013-11-08 13:41:00,47.1,32.7,29.89,North,0,10.0,10.0,57,0.00,,,0.00,meteohub,2013-11-08 18:41:00,
2013-11-08 13:46:00,46.6,32.2,29.90,North,0,9.0,10.0,57,0.00,,,0.00,meteohub,2013-11-08 18:46:00,
2013-11-08 13:51:00,46.6,32.5,29.90,North,0,4.0,10.0,58,0.00,,,0.00,meteohub,2013-11-08 18:51:00,
2013-11-08 13:56:00,46.6,33.1,29.90,West,270,2.0,10.0,59,0.00,,,0.00,meteohub,2013-11-08 18:56:00,
2013-11-08 14:01:00,46.8,32.7,29.90,SW,225,7.0,10.0,58,0.00,,,0.00,meteohub,2013-11-08 19:01:00,
2013-11-08 14:06:00,46.8,32.4,29.90,North,0,8.0,10.0,57,0.00,,,0.00,meteohub,2013-11-08 19:06:00,
2013-11-08 14:11:00,46.9,32.9,29.91,South,180,4.0,10.0,58,0.00,,,0.00,meteohub,2013-11-08 19:11:00,
2013-11-08 14:16:00,46.9,32.5,29.91,NW,315,3.0,10.0,57,0.00,,,0.00,meteohub,2013-11-08 19:16:00,
2013-11-08 14:21:00,47.1,33.4,29.91,SW,225,2.0,9.0,59,0.00,,,0.00,meteohub,2013-11-08 19:21:00,
2013-11-08 14:26:00,47.1,33.1,29.91,North,0,7.0,9.0,58,0.00,,,0.00,meteohub,2013-11-08 19:26:00,
2013-11-08 14:31:00,46.6,32.5,29.91,NW,315,5.0,8.0,58,0.00,,,0.00,meteohub,2013-11-08 19:31:00,
2013-11-08 14:36:00,46.0,32.0,29.91,North,0,3.0,8.0,58,0.00,,,0.00,meteohub,2013-11-08 19:36:00,
2013-11-08 14:41:00,45.9,32.7,29.91,West,270,5.0,8.0,60,0.00,,,0.00,meteohub,2013-11-08 19:41:00,
2013-11-08 14:46:00,45.5,32.4,29.91,North,0,2.0,8.0,60,0.00,,,0.00,meteohub,2013-11-08 19:46:00,
2013-11-08 14:51:00,45.3,32.2,29.91,North,0,3.0,8.0,60,0.00,,,0.00,meteohub,2013-11-08 19:51:00,
2013-11-08 14:56:00,45.3,33.1,29.91,NE,45,5.0,5.0,62,0.00,,,0.00,meteohub,2013-11-08 19:56:00,
2013-11-08 15:01:00,45.1,32.5,29.93,North,0,2.0,5.0,61,0.00,,,0.00,meteohub,2013-11-08 20:01:00,
2013-11-08 15:06:00,45.1,32.5,29.92,NE,45,4.0,8.0,61,0.00,,,0.00,meteohub,2013-11-08 20:06:00,
2013-11-08 15:11:00,45.1,32.0,29.93,North,0,7.0,8.0,60,0.00,,,0.00,meteohub,2013-11-08 20:11:00,
2013-11-08 15:16:00,45.3,32.2,29.93,SE,135,6.0,8.0,60,0.00,,,0.00,meteohub,2013-11-08 20:16:00,
2013-11-08 15:21:00,45.7,33.4,29.93,South,180,2.0,8.0,62,0.00,,,0.00,meteohub,2013-11-08 20:21:00,
2013-11-08 15:26:00,46.0,33.3,29.93,South,180,2.0,8.0,61,0.00,,,0.00,meteohub,2013-11-08 20:26:00,
2013-11-08 15:31:00,46.2,33.4,29.93,North,0,3.0,7.0,61,0.00,,,0.00,meteohub,2013-11-08 20:31:00,
2013-11-08 15:36:00,46.2,32.2,29.94,North,0,4.0,7.0,58,0.00,,,0.00,meteohub,2013-11-08 20:36:00,
2013-11-08 15:41:00,46.0,32.9,29.94,NW,315,7.0,7.0,60,0.00,,,0.00,meteohub,2013-11-08 20:41:00,
2013-11-08 15:46:00,45.7,33.4,29.94,NW,315,8.0,11.0,62,0.00,,,0.00,meteohub,2013-11-08 20:46:00,
2013-11-08 15:51:00,45.1,33.3,29.94,NW,315,4.0,11.0,63,0.00,,,0.00,meteohub,2013-11-08 20:51:00,
2013-11-08 15:56:00,44.8,34.2,29.94,North,0,4.0,11.0,66,0.00,,,0.00,meteohub,2013-11-08 20:56:00,
2013-11-08 16:01:00,44.6,34.0,29.95,North,0,4.0,8.0,66,0.00,,,0.00,meteohub,2013-11-08 21:01:00,
2013-11-08 16:06:00,44.6,34.0,29.94,NW,315,8.0,9.0,66,0.00,,,0.00,meteohub,2013-11-08 21:06:00,
2013-11-08 16:11:00,44.1,33.8,29.95,NW,315,6.0,9.0,67,0.00,,,0.00,meteohub,2013-11-08 21:11:00,
2013-11-08 16:17:00,43.9,33.6,29.96,NW,315,7.0,12.0,67,0.00,,,0.00,meteohub,2013-11-08 21:17:00,
2013-11-08 16:22:00,43.5,33.6,29.96,WNW,293,6.0,12.0,68,0.00,,,0.00,meteohub,2013-11-08 21:22:00,
2013-11-08 16:27:00,43.3,33.8,29.96,NW,315,6.0,12.0,69,0.00,,,0.00,meteohub,2013-11-08 21:27:00,
2013-11-08 16:32:00,43.2,33.6,29.96,West,270,4.0,10.0,69,0.00,,,0.00,meteohub,2013-11-08 21:32:00,
2013-11-08 16:37:00,42.6,33.8,29.96,West,270,3.0,10.0,71,0.00,,,0.00,meteohub,2013-11-08 21:37:00,
2013-11-08 16:42:00,42.4,33.6,29.96,North,0,3.0,8.0,71,0.00,,,0.00,meteohub,2013-11-08 21:42:00,
2013-11-08 16:47:00,42.3,33.8,29.96,North,0,2.0,6.0,72,0.00,,,0.00,meteohub,2013-11-08 21:47:00,
2013-11-08 16:52:00,41.9,33.8,29.97,NW,315,4.0,6.0,73,0.00,,,0.00,meteohub,2013-11-08 21:52:00,
2013-11-08 16:57:00,41.7,33.6,29.96,SSE,158,4.0,6.0,73,0.00,,,0.00,meteohub,2013-11-08 21:57:00,
2013-11-08 17:02:00,41.5,33.3,29.96,NW,315,3.0,5.0,72,0.00,,,0.00,meteohub,2013-11-08 22:02:00,
2013-11-08 17:07:00,41.5,32.5,29.97,NW,315,4.0,5.0,70,0.00,,,0.00,meteohub,2013-11-08 22:07:00,
2013-11-08 17:12:00,41.5,31.8,29.97,West,270,6.0,6.0,68,0.00,,,0.00,meteohub,2013-11-08 22:12:00,
2013-11-08 17:17:00,41.5,31.8,29.97,North,0,4.0,6.0,68,0.00,,,0.00,meteohub,2013-11-08 22:17:00,
2013-11-08 17:22:00,41.4,32.0,29.98,NW,315,4.0,11.0,69,0.00,,,0.00,meteohub,2013-11-08 22:22:00,
2013-11-08 17:27:00,41.4,32.0,29.98,NW,315,4.0,11.0,69,0.00,,,0.00,meteohub,2013-11-08 22:27:00,
2013-11-08 17:32:00,41.4,32.0,29.98,West,270,3.0,11.0,69,0.00,,,0.00,meteohub,2013-11-08 22:32:00,
2013-11-08 17:37:00,41.2,31.8,29.99,West,270,7.0,7.0,69,0.00,,,0.00,meteohub,2013-11-08 22:37:00,
2013-11-08 17:42:00,41.5,31.5,29.99,NW,315,8.0,8.0,67,0.00,,,0.00,meteohub,2013-11-08 22:42:00,
2013-11-08 17:47:00,41.5,31.8,29.99,North,0,8.0,9.0,68,0.00,,,0.00,meteohub,2013-11-08 22:47:00,
2013-11-08 17:52:00,41.5,31.1,29.99,North,0,5.0,11.0,66,0.00,,,0.00,meteohub,2013-11-08 22:52:00,
2013-11-08 17:57:00,41.4,30.9,30.00,North,0,4.0,11.0,66,0.00,,,0.00,meteohub,2013-11-08 22:57:00,
2013-11-08 18:02:00,41.4,30.6,30.00,North,0,8.0,11.0,65,0.00,,,0.00,meteohub,2013-11-08 23:02:00,
2013-11-08 18:07:00,41.2,30.4,30.00,NW,315,9.0,9.0,65,0.00,,,0.00,meteohub,2013-11-08 23:07:00,
2013-11-08 18:12:00,41.2,30.7,30.00,NE,45,2.0,9.0,66,0.00,,,0.00,meteohub,2013-11-08 23:12:00,
2013-11-08 18:17:00,41.2,31.1,30.01,NW,315,8.0,11.0,67,0.00,,,0.00,meteohub,2013-11-08 23:17:00,
2013-11-08 18:22:00,41.0,30.9,30.01,North,0,4.0,11.0,67,0.00,,,0.00,meteohub,2013-11-08 23:22:00,
2013-11-08 18:27:00,40.6,30.9,30.01,West,270,2.0,8.0,68,0.00,,,0.00,meteohub,2013-11-08 23:27:00,
2013-11-08 18:32:00,40.5,31.1,30.01,West,270,3.0,8.0,69,0.00,,,0.00,meteohub,2013-11-08 23:32:00,
2013-11-08 18:37:00,40.5,30.7,30.02,NE,45,5.0,8.0,68,0.00,,,0.00,meteohub,2013-11-08 23:37:00,
2013-11-08 18:42:00,40.5,30.7,30.01,North,-999,-999.0,8.0,68,0.00,,,0.00,meteohub,2013-11-08 23:42:00,
2013-11-08 18:47:00,40.5,31.1,30.02,South,180,3.0,8.0,69,0.00,,,0.00,meteohub,2013-11-08 23:47:00,
2013-11-08 18:52:00,40.3,30.6,30.02,West,270,3.0,8.0,68,0.00,,,0.00,meteohub,2013-11-08 23:52:00,
2013-11-08 18:57:00,40.1,30.7,30.02,NW,315,2.0,8.0,69,0.00,,,0.00,meteohub,2013-11-08 23:57:00,
2013-11-08 19:02:00,40.1,31.1,30.02,ENE,68,3.0,5.0,70,0.00,,,0.00,meteohub,2013-11-09 00:02:00,
2013-11-08 19:07:00,39.9,30.9,30.02,NW,315,4.0,5.0,70,0.00,,,0.00,meteohub,2013-11-09 00:07:00,
2013-11-08 19:12:00,40.1,30.7,30.02,WNW,293,3.0,5.0,69,0.00,,,0.00,meteohub,2013-11-09 00:12:00,
2013-11-08 19:17:00,40.1,30.7,30.02,NW,315,8.0,10.0,69,0.00,,,0.00,meteohub,2013-11-09 00:17:00,
2013-11-08 19:22:00,40.1,31.1,30.02,NW,315,2.0,10.0,70,0.00,,,0.00,meteohub,2013-11-09 00:22:00,
2013-11-08 19:27:00,39.9,30.9,30.03,West,270,2.0,8.0,70,0.00,,,0.00,meteohub,2013-11-09 00:27:00,
2013-11-08 19:32:00,39.6,30.6,30.03,SE,135,2.0,8.0,70,0.00,,,0.00,meteohub,2013-11-09 00:32:00,
2013-11-08 19:37:00,39.2,30.6,30.03,ESE,113,2.0,6.0,71,0.00,,,0.00,meteohub,2013-11-09 00:37:00,
2013-11-08 19:42:00,39.0,30.4,30.03,East,90,2.0,2.0,71,0.00,,,0.00,meteohub,2013-11-09 00:42:00,
2013-11-08 19:47:00,39.2,30.9,30.03,South,180,3.0,3.0,72,0.00,,,0.00,meteohub,2013-11-09 00:47:00,
2013-11-08 19:52:00,39.2,30.6,30.03,NW,315,2.0,3.0,71,0.00,,,0.00,meteohub,2013-11-09 00:52:00,
2013-11-08 19:57:00,39.2,30.6,30.03,NW,315,2.0,3.0,71,0.00,,,0.00,meteohub,2013-11-09 00:57:00,
2013-11-08 20:02:00,39.2,30.6,30.03,NW,315,1.0,7.0,71,0.00,,,0.00,meteohub,2013-11-09 01:02:00,
2013-11-08 20:07:00,38.8,30.2,30.03,North,0,1.0,7.0,71,0.00,,,0.00,meteohub,2013-11-09 01:07:00,
2013-11-08 20:12:00,38.8,30.6,30.03,North,0,0.0,4.0,72,0.00,,,0.00,meteohub,2013-11-09 01:12:00,
2013-11-08 20:17:00,38.8,30.6,30.03,NW,315,4.0,4.0,72,0.00,,,0.00,meteohub,2013-11-09 01:17:00,
2013-11-08 20:22:00,38.7,30.4,30.03,NE,45,2.0,4.0,72,0.00,,,0.00,meteohub,2013-11-09 01:22:00,
2013-11-08 20:27:00,38.7,30.4,30.03,NE,45,2.0,4.0,72,0.00,,,0.00,meteohub,2013-11-09 01:27:00,
2013-11-08 20:32:00,38.7,30.7,30.04,North,0,2.0,4.0,73,0.00,,,0.00,meteohub,2013-11-09 01:32:00,
2013-11-08 20:37:00,38.5,30.6,30.04,South,180,2.0,3.0,73,0.00,,,0.00,meteohub,2013-11-09 01:37:00,
2013-11-08 20:42:00,38.5,30.9,30.04,North,0,1.0,3.0,74,0.00,,,0.00,meteohub,2013-11-09 01:42:00,
2013-11-08 20:47:00,38.5,30.6,30.04,West,270,2.0,3.0,73,0.00,,,0.00,meteohub,2013-11-09 01:47:00,
2013-11-08 20:52:00,38.5,30.9,30.05,WNW,293,2.0,3.0,74,0.00,,,0.00,meteohub,2013-11-09 01:52:00,
2013-11-08 20:57:00,38.5,30.6,30.05,NW,315,2.0,4.0,73,0.00,,,0.00,meteohub,2013-11-09 01:57:00,
2013-11-08 21:02:00,38.7,31.1,30.05,NW,315,2.0,4.0,74,0.00,,,0.00,meteohub,2013-11-09 02:02:00,
2013-11-08 21:07:00,38.5,30.6,30.05,SW,225,3.0,4.0,73,0.00,,,0.00,meteohub,2013-11-09 02:07:00,
2013-11-08 21:12:00,38.5,30.9,30.05,West,270,3.0,3.0,74,0.00,,,0.00,meteohub,2013-11-09 02:12:00,
2013-11-08 21:17:00,38.3,30.7,30.05,SW,225,2.0,4.0,74,0.00,,,0.00,meteohub,2013-11-09 02:17:00,
2013-11-08 21:22:00,38.1,30.6,30.05,West,270,2.0,4.0,74,0.00,,,0.00,meteohub,2013-11-09 02:22:00,
2013-11-08 21:27:00,37.9,30.4,30.06,NW,315,1.0,4.0,74,0.00,,,0.00,meteohub,2013-11-09 02:27:00,
2013-11-08 21:32:00,37.8,30.6,30.06,South,180,2.0,2.0,75,0.00,,,0.00,meteohub,2013-11-09 02:32:00,
2013-11-08 21:37:00,37.6,30.4,30.06,SW,225,1.0,2.0,75,0.00,,,0.00,meteohub,2013-11-09 02:37:00,
2013-11-08 21:42:00,37.4,30.2,30.06,SW,225,0.0,2.0,75,0.00,,,0.00,meteohub,2013-11-09 02:42:00,
2013-11-08 21:47:00,37.0,30.2,30.06,SW,225,0.0,2.0,76,0.00,,,0.00,meteohub,2013-11-09 02:47:00,
2013-11-08 21:52:00,37.0,30.2,30.06,SW,225,0.0,2.0,76,0.00,,,0.00,meteohub,2013-11-09 02:52:00,
2013-11-08 21:57:00,36.9,30.4,30.06,SW,225,0.0,2.0,77,0.00,,,0.00,meteohub,2013-11-09 02:57:00,
2013-11-08 22:02:00,36.9,30.4,30.06,SW,225,1.0,2.0,77,0.00,,,0.00,meteohub,2013-11-09 03:02:00,
2013-11-08 22:07:00,36.9,30.6,30.06,SW,225,1.0,2.0,78,0.00,,,0.00,meteohub,2013-11-09 03:07:00,
2013-11-08 22:12:00,36.7,30.2,30.06,SW,225,0.0,2.0,77,0.00,,,0.00,meteohub,2013-11-09 03:12:00,
2013-11-08 22:17:00,36.3,30.2,30.07,South,180,0.0,2.0,78,0.00,,,0.00,meteohub,2013-11-09 03:17:00,
2013-11-08 22:22:00,36.0,30.4,30.07,SW,225,1.0,2.0,80,0.00,,,0.00,meteohub,2013-11-09 03:22:00,
2013-11-08 22:27:00,36.0,30.7,30.07,SW,225,2.0,2.0,81,0.00,,,0.00,meteohub,2013-11-09 03:27:00,
2013-11-08 22:32:00,36.0,30.7,30.07,South,180,1.0,2.0,81,0.00,,,0.00,meteohub,2013-11-09 03:32:00,
2013-11-08 22:37:00,35.6,30.7,30.07,SW,225,0.0,2.0,82,0.00,,,0.00,meteohub,2013-11-09 03:37:00,
2013-11-08 22:42:00,35.6,30.9,30.06,South,180,2.0,2.0,83,0.00,,,0.00,meteohub,2013-11-09 03:42:00,
2013-11-08 22:47:00,35.4,30.6,30.07,SE,135,1.0,2.0,82,0.00,,,0.00,meteohub,2013-11-09 03:47:00,
2013-11-08 22:52:00,35.4,30.7,30.07,South,180,1.0,2.0,83,0.00,,,0.00,meteohub,2013-11-09 03:52:00,
2013-11-08 22:57:00,35.6,30.9,30.07,South,180,1.0,2.0,83,0.00,,,0.00,meteohub,2013-11-09 03:57:00,
2013-11-08 23:02:00,35.4,30.7,30.07,SE,135,2.0,2.0,83,0.00,,,0.00,meteohub,2013-11-09 04:02:00,
2013-11-08 23:07:00,35.4,30.7,30.08,South,180,1.0,2.0,83,0.00,,,0.00,meteohub,2013-11-09 04:07:00,
2013-11-08 23:12:00,35.4,31.1,30.08,South,180,2.0,2.0,84,0.00,,,0.00,meteohub,2013-11-09 04:12:00,
2013-11-08 23:17:00,35.2,31.5,30.08,South,180,1.0,2.0,86,0.00,,,0.00,meteohub,2013-11-09 04:17:00,
2013-11-08 23:22:00,35.4,31.6,30.08,South,180,1.0,2.0,86,0.00,,,0.00,meteohub,2013-11-09 04:22:00,
2013-11-08 23:27:00,35.4,31.6,30.08,South,180,2.0,2.0,86,0.00,,,0.00,meteohub,2013-11-09 04:27:00,
2013-11-08 23:32:00,35.2,31.8,30.08,South,180,0.0,2.0,87,0.00,,,0.00,meteohub,2013-11-09 04:32:00,
2013-11-08 23:37:00,35.1,31.3,30.08,SW,225,1.0,2.0,86,0.00,,,0.00,meteohub,2013-11-09 04:37:00,
2013-11-08 23:42:00,35.1,31.3,30.08,SW,225,0.0,2.0,86,0.00,,,0.00,meteohub,2013-11-09 04:42:00,
2013-11-08 23:47:00,35.1,30.9,30.08,South,180,0.0,2.0,85,0.00,,,0.00,meteohub,2013-11-09 04:47:00,
2013-11-08 23:52:00,34.9,31.1,30.08,South,180,0.0,2.0,86,0.00,,,0.00,meteohub,2013-11-09 04:52:00,
2013-11-08 23:57:00,34.9,31.5,30.09,SW,225,0.0,1.0,87,0.00,,,0.00,meteohub,2013-11-09 04:57:00,